FALCON 9 DEB (52654 NORAD) Tracking and Keplerian Element Data

This shows tracking and keplerian element data for the satellite.

Feedback or suggestion? Click here.




ElementValue
Catalog52654
NameFALCON 9 DEB
Epoch Orbit668
Epoch Day176.52449351
Epoch Year2022
RAAN224.853
Inclination53.1805
Eccentricity0.0004524
Argument of Perigee319.5189
Mean Anonmoly40.5523
Mean Motion16.42483745
Decay Rate0.07345358
L11 52654U 22052BJ 22176.52449351 .07345358 12476-4 38996-3 0 9991
L22 52654 53.1805 224.8530 0004524 319.5189 40.5523 16.42483745 6684

Live tracking and technical data element details for FALCON 9 DEB (NORAD 52654). FALCON 9 DEB can be tracked NOW for your location showing map with azimuth and elevation plus other details from your city location.

Track the satellite on the map from your city or location and see movement details for azimuth, elevation, latitude, longitude, range, height, and movement on the map or in text.







IsCatalogInMostPopularTable: catalog: 52654, numindb: 5
Update: records affected: 1



GetName: 52654 FALCON 9 DEB

Hit Count: updated at: Sun, 14 Aug 2022 00:59:08 GMT